Location: Springfield
(37.2150°N, 93.2980°W)
Time: 16:07:18
(UTC-05:00)

Daily predictions for brighter satellites

Satellite Brightness Start Highest point End
(mag) Time Altitude Azimuth Time Altitude Azimuth Time Altitude Azimuth
Meteor 2-11 Rocket 4.5 20:57:21 10° S 21:03:18 63° E 21:09:17 10° NNE
USA 215 3.6 20:57:18 10° ESE 21:03:43 61° NE 21:10:10 10° NW
Cosmos 1048 Rocket 4.3 20:58:55 10° S 21:03:56 47° ESE 21:09:03 10° NNE
Cosmos 1844 Rocket 3.4 21:08:11 10° SSE 21:13:11 33° ESE 21:18:13 10° NE
Cosmos 1400 Rocket 2.8 21:09:10 10° S 21:13:12 90° W 21:17:12 10° N
NOAA 11 4.2 21:09:53 10° SSE 21:15:16 70° ENE 21:20:40 10° N
Resurs 1-3 3.6 21:11:20 10° SSE 21:15:42 89° E 21:20:06 10° NNW
Cosmos 158 Rocket 4.5 21:10:57 10° SSW 21:16:14 68° WNW 21:21:26 10° NNE
Aureole 1 Rocket 2.3 21:18:29 10° SSW 21:21:33 80° ESE 21:25:13 10° NNE
Cosmos 1812 Rocket 3.7 21:17:22 10° N 21:21:44 81° W 21:26:06 10° S
Cosmos 1470 3.6 21:17:57 10° NNW 21:21:46 51° W 21:25:33 10° S
Cosmos 1346 Rocket 4.3 21:19:58 10° NNE 21:23:06 21° ENE 21:25:54 11° ESE
Spot 2 Rocket 3.5 21:20:51 10° SSE 21:25:52 76° ENE 21:30:57 10° N
Cosmos 1953 Rocket 3.9 21:24:12 10° SSE 21:28:19 45° E 21:32:30 10° NNE
YAOGAN 6 4.5 21:25:46 10° SSW 21:28:52 28° W 21:31:57 10° NW
Cosmos 1452 Rocket 3.6 21:23:33 10° NNW 21:28:52 85° WSW 21:34:08 10° SSE
Cosmos 1420 Rocket 4.0 21:24:03 10° NNW 21:29:15 85° ENE 21:34:26 10° SSE
Meteor 1-24 Rocket 4.2 21:24:21 10° SSE 21:30:07 49° E 21:35:53 10° NNE
Cosmos 1932 4.5 21:24:53 10° NNW 21:31:08 79° ENE 21:36:55 12° SSE
USA 186 4.0 21:30:07 10° SSW 21:32:49 24° W 21:35:25 10° NW
Cosmos 1758 Rocket 3.6 21:29:11 10° S 21:33:35 67° E 21:37:59 10° NNE
Resurs 01 Rocket 2.5 21:37:05 10° S 21:41:21 49° W 21:45:40 10° NNW
SAR-Lupe-3 4.5 21:37:57 10° NNE 21:41:33 85° ESE 21:45:07 10° SSW
H-II Stage 2 3.9 21:41:43 10° SSW 21:42:08 10° S 21:42:32 10° S
OAO 3 Rocket 3.2 21:39:07 10° W 21:44:03 69° S 21:48:39 12° E
Meteor 2-5 Rocket 4.0 21:42:06 10° SSW 21:48:01 77° W 21:53:58 10° N
SL-8 R/B 3.9 21:43:34 10° WSW 21:48:23 78° NW 21:53:14 10° NE
Cosmos 1908 4.4 21:45:23 10° NNE 21:48:42 27° ENE 21:50:28 19° ESE
ATLAS 3B R/B 3.7 21:47:54 10° NNW 21:53:43 31° NE 21:58:38 13° ESE
H-2A R/B 2.3 21:50:00 16° SSE 21:54:05 57° ENE 21:59:21 10° N
USA 238 DEB 4.4 21:48:46 10° NNW 21:55:34 44° NE 22:00:55 17° ESE
USA 238 4.5 21:48:53 10° NNW 21:55:40 44° NE 22:01:01 17° ESE
Cosmos 1825 Rocket 4.4 21:54:05 10° SSW 21:58:25 52° W 22:02:48 10° N
Cosmos 921 Rocket 3.6 21:54:40 10° N 21:58:58 43° ENE 22:01:23 23° SE
Cosmos 1340 4.2 21:56:22 10° NNE 21:59:15 20° ENE 22:00:19 18° E
SPOT 5 4.1 21:57:07 18° ESE 21:59:56 30° ENE 22:04:26 10° N
Cosmos 1269 Rocket 4.2 21:54:49 10° SSW 22:00:06 75° WNW 22:05:26 10° NNE
In-Cosmos 22 4.3 21:54:47 10° SSW 22:00:17 77° W 22:05:59 10° N
Cosmos 1238 Rocket 2.3 21:58:16 11° SSW 22:01:03 67° W 22:04:02 10° N
Cosmos 494 Rocket 4.0 21:56:44 10° S 22:01:53 63° ESE 22:07:06 10° NNE
Lacrosse 5 3.5 22:01:19 10° WSW 22:06:01 38° NW 22:10:44 10° NNE
MetOp-B 4.1 22:04:42 19° SSE 22:08:38 78° ENE 22:14:00 10° N
Cosmos 1674 2.6 22:08:02 21° S 22:10:29 72° E 22:14:19 10° NNE
SL-08 RB Rocket 3.7 22:07:31 21° SSE 22:10:36 80° ENE 22:15:17 10° N
Cosmos 1244 Rocket 4.5 22:06:16 10° N 22:12:39 78° E 22:17:22 19° SSE
Cosmos 1461 3.8 22:12:24 27° SE 22:13:47 33° ESE 22:18:00 10° NE
Cosmos 1300 4.5 22:13:38 10° NNE 22:16:15 17° ENE 22:16:38 17° E
ATLAS 2AS CENTAUR R/B 3.4 22:12:40 10° SW 22:20:23 68° NW 22:28:30 10° NNE
DMSP B5D2-2 4.1 22:15:17 10° NNE 22:20:30 63° ESE 22:23:59 21° S
SEDSat Delta rocket 4.3 22:17:05 10° SW 22:21:02 25° S 22:21:02 25° S
Cosmos 220 Rocket 4.0 22:22:19 29° S 22:24:13 57° ESE 22:28:21 10° NNE
Cosmos 1726 2.2 22:24:03 10° N 22:27:46 59° E 22:28:37 45° SE
Meteor 2-10 4.3 22:22:29 10° N 22:27:52 58° E 22:30:26 31° SE
ERS-1 Rocket 2.9 22:26:46 28° SSE 22:29:30 90° E 22:34:34 10° NNW
OE (NEXTSAT) 4.3 22:30:03 10° WNW 22:33:35 71° SSW 22:34:03 60° SSE
Cosmos 2251 Rocket 3.5 22:31:27 25° S 22:34:31 63° ESE 22:39:47 10° NNE
Cosmos 2278 Rocket 2.3 22:34:38 27° S 22:37:33 55° ESE 22:43:05 10° NNE
Landsat 7 4.1 22:38:06 38° SE 22:39:36 54° ENE 22:44:14 10° N
Meteor 1-21 Rocket 4.3 22:36:38 28° S 22:39:43 66° E 22:45:29 10° NNE
S3M 4.0 22:35:14 20° S 22:39:47 85° E 22:46:13 10° N
ARGOS 4.1 22:36:38 15° SSW 22:40:44 42° W 22:45:52 10° NNW
Cosmos-2242 4.1 22:38:21 10° NNW 22:42:29 40° W 22:45:05 20° SSW
Cosmos 2084 4.0 22:39:42 10° NW 22:43:20 41° WSW 22:44:11 36° SSW
CZ-2C R/B 4.0 22:44:39 30° ESE 22:46:40 40° ENE 22:52:00 10° N
USA 215 4.2 22:43:19 21° S 22:46:52 35° SW 22:52:45 10° WNW
Meteor 1-29 3.9 22:47:22 10° NNE 22:49:48 36° ENE 22:49:48 36° ENE
SL-14 R/B 3.0 22:53:37 71° SE 22:53:55 76° E 22:57:51 10° N
COSMOS 2406 3.2 22:49:31 10° NNW 22:55:18 79° WSW 22:57:26 40° S
NOSS 2-2 (E) 3.7 22:57:04 45° ENE 22:57:04 45° ENE 23:00:23 10° NE
Helios 1A 2.9 22:55:31 54° S 22:56:22 78° WSW 23:00:35 10° NNW
Cosmos 1844 Rocket 4.5 22:52:02 10° WSW 22:57:01 31° WNW 23:02:01 10° N
Cosmos 1842 Rocket 3.5 22:53:23 10° N 22:57:44 83° W 22:58:39 56° S
NOSS 3-4 (A) 3.3 22:52:04 12° SSW 22:57:45 78° ESE 23:04:07 10° NE
NOSS 3-4 (C) 3.3 22:52:23 13° SSW 22:57:51 77° ESE 23:04:12 10° NE
Terra 2.0 22:58:07 47° ESE 22:59:01 55° ENE 23:03:40 10° N
CENTAUR R/B 4.2 22:54:42 10° NNW 23:01:47 33° NE 23:07:12 17° E
Helios 1B rocket 2.4 23:00:01 10° N 23:04:07 82° WNW 23:04:49 60° SSW
ATLAS 5 CENTAUR R/B 1.4 23:15:45 77° SE 23:15:53 78° ESE 23:20:38 10° NE
Cosmos 883 Rocket 4.4 23:15:48 40° S 23:18:13 87° W 23:24:28 10° N
APEX 3.5 23:14:58 10° NNW 23:17:42 58° WNW 23:17:42 58° WNW
Cosmos 2297 4.0 23:20:41 46° ESE 23:20:41 46° ESE 23:26:08 10° NE
Cosmos 2315 Rocket 3.9 23:19:31 48° SSE 23:21:20 75° E 23:27:41 10° N
Okean 3 Rocket 3.6 23:23:49 64° ENE 23:23:49 64° ENE 23:27:51 10° NNE
Cosmos 1626 2.7 23:27:30 56° N 23:27:30 56° N 23:30:32 10° N
NOSS 2-2 (D) 3.6 23:27:30 64° NNE 23:27:30 64° NNE 23:31:08 10° NNE
OAO 3 Rocket 3.8 23:22:39 10° W 23:26:27 43° SW 23:26:27 43° SW
Cosmos 2082 Rocket 2.9 23:22:36 10° N 23:27:59 41° ENE 23:29:05 37° E
Cosmos 1833 Rocket 3.1 23:25:21 10° N 23:30:47 48° ENE 23:31:41 44° E
Cosmos 2221 2.7 23:27:47 10° NNW 23:32:03 65° W 23:32:03 65° W
H-2A R/B 4.4 23:30:42 10° SW 23:33:50 16° W 23:37:03 10° NW
SL-27 R/B 4.3 23:33:44 10° N 23:35:56 26° NE 23:35:56 26° NE
SPOT 5 4.3 23:36:22 25° SW 23:37:51 30° W 23:42:25 10° NW
CZ-2C R/B 2.5 23:33:45 10° NNE 23:39:11 88° ESE 23:39:51 70° S
RESURS DK-1 3.2 23:44:08 43° NNE 23:44:08 43° NNE 23:47:01 10° NNE
EO 1 Delta rocket 4.1 23:37:55 10° N 23:44:24 81° E 23:45:05 69° SSE
ATLAS 3B R/B 3.0 23:38:17 10° NW 23:44:35 49° WSW 23:45:53 43° SSW
Cosmos 1455 3.6 23:47:19 10° N 23:49:42 33° NNE 23:49:42 33° NNE
NOSS 2-2 (C) 4.4 23:52:53 40° WNW 23:53:10 41° NW 23:57:10 10° NNE
